TimeCDT,TemperatureF,Dew PointF,Humidity,Sea Level PressureIn,VisibilityMPH,Wind Direction,Wind SpeedMPH,Gust SpeedMPH,PrecipitationIn,Events,Conditions,WindDirDegrees,DateUTC
12:15 AM,77.0,75.2,94,30.05,8.0,Calm,Calm,-,0.00,,Clear,0,2013-08-24 05:15:00
12:35 AM,77.0,75.2,94,30.06,10.0,Calm,Calm,-,0.00,,Clear,0,2013-08-24 05:35:00
12:55 AM,75.2,75.2,100,30.06,8.0,Calm,Calm,-,0.00,,Clear,0,2013-08-24 05:55:00
1:15 AM,75.2,75.2,100,30.06,8.0,Calm,Calm,-,0.00,,Clear,0,2013-08-24 06:15:00
1:35 AM,75.2,75.2,100,30.06,10.0,Calm,Calm,-,0.00,,Clear,0,2013-08-24 06:35:00
1:55 AM,75.2,75.2,100,30.06,8.0,Calm,Calm,-,0.00,,Clear,0,2013-08-24 06:55:00
2:15 AM,75.2,75.2,100,30.07,8.0,East,3.5,-,0.00,,Clear,80,2013-08-24 07:15:00
2:35 AM,73.4,73.4,100,30.07,9.0,Calm,Calm,-,0.00,,Clear,0,2013-08-24 07:35:00
2:55 AM,73.4,73.4,100,30.07,9.0,NNE,4.6,-,0.00,,Clear,20,2013-08-24 07:55:00
3:15 AM,73.4,73.4,100,30.07,8.0,NE,5.8,-,0.00,,Clear,40,2013-08-24 08:15:00
3:35 AM,73.4,73.4,100,30.07,9.0,Calm,Calm,-,0.00,,Clear,0,2013-08-24 08:35:00
3:55 AM,73.4,73.4,100,30.07,7.0,Calm,Calm,-,0.00,,Clear,0,2013-08-24 08:55:00
4:15 AM,73.4,73.4,100,30.08,7.0,Calm,Calm,-,0.00,,Clear,0,2013-08-24 09:15:00
4:35 AM,73.4,73.4,100,30.07,8.0,Calm,Calm,-,0.00,,Clear,0,2013-08-24 09:35:00
4:55 AM,71.6,71.6,100,30.08,5.0,Calm,Calm,-,0.00,,Clear,0,2013-08-24 09:55:00
5:15 AM,71.6,71.6,100,30.08,5.0,Calm,Calm,-,0.00,,Clear,0,2013-08-24 10:15:00
5:35 AM,71.6,71.6,100,30.09,5.0,Calm,Calm,-,0.00,,Clear,0,2013-08-24 10:35:00
5:55 AM,71.6,71.6,100,30.09,7.0,Calm,Calm,-,0.00,,Clear,0,2013-08-24 10:55:00
6:15 AM,71.6,71.6,100,30.10,6.0,Calm,Calm,-,0.00,,Clear,0,2013-08-24 11:15:00
6:35 AM,71.6,71.6,100,30.11,5.0,Calm,Calm,-,0.00,,Clear,0,2013-08-24 11:35:00
6:50 AM,71.6,71.6,100,30.12,5.0,Calm,Calm,-,N/A,,Partly Cloudy,0,2013-08-24 11:50:00
7:50 AM,73.4,73.4,100,30.14,6.0,NE,6.9,-,N/A,,Partly Cloudy,50,2013-08-24 12:50:00
8:50 AM,78.8,77.0,94,30.14,9.0,Calm,Calm,-,N/A,,Clear,0,2013-08-24 13:50:00
10:50 AM,84.2,78.8,84,30.16,10.0,ENE,8.1,-,N/A,,Scattered Clouds,70,2013-08-24 15:50:00
11:50 AM,87.8,73.4,62,30.14,10.0,East,4.6,-,N/A,,Mostly Cloudy,90,2013-08-24 16:50:00
12:50 PM,89.6,71.6,55,30.13,10.0,ENE,8.1,-,N/A,,Mostly Cloudy,60,2013-08-24 17:50:00
1:50 PM,91.4,71.6,52,30.12,10.0,ENE,10.4,-,N/A,,Mostly Cloudy,60,2013-08-24 18:50:00
2:50 PM,91.4,73.4,55,30.10,10.0,ENE,8.1,-,N/A,,Mostly Cloudy,60,2013-08-24 19:50:00
3:50 PM,89.6,71.6,55,30.10,10.0,ENE,10.4,-,N/A,,Mostly Cloudy,60,2013-08-24 20:50:00
4:50 PM,89.6,71.6,55,30.09,10.0,ENE,9.2,-,N/A,,Mostly Cloudy,70,2013-08-24 21:50:00
5:50 PM,87.8,71.6,58,30.10,10.0,East,8.1,-,N/A,,Mostly Cloudy,80,2013-08-24 22:50:00
6:50 PM,86.0,73.4,66,30.10,10.0,ENE,4.6,-,N/A,,Mostly Cloudy,70,2013-08-24 23:50:00
7:50 PM,82.4,75.2,79,30.11,10.0,SSE,4.6,-,N/A,,Mostly Cloudy,160,2013-08-25 00:50:00
8:55 PM,80.6,75.2,84,30.13,9.0,Calm,Calm,-,0.00,,Mostly Cloudy,0,2013-08-25 01:55:00
9:15 PM,80.6,75.2,84,30.14,10.0,Calm,Calm,-,0.00,,Partly Cloudy,0,2013-08-25 02:15:00
9:35 PM,80.6,75.2,84,30.15,9.0,Calm,Calm,-,0.00,,Clear,0,2013-08-25 02:35:00
9:55 PM,80.6,75.2,84,30.15,9.0,Calm,Calm,-,0.00,,Clear,0,2013-08-25 02:55:00
10:15 PM,80.6,75.2,84,30.15,10.0,Calm,Calm,-,0.00,,Clear,0,2013-08-25 03:15:00
10:35 PM,78.8,75.2,89,30.15,10.0,Calm,Calm,-,0.00,,Clear,0,2013-08-25 03:35:00
10:55 PM,78.8,75.2,89,30.15,8.0,ENE,3.5,-,0.00,,Clear,70,2013-08-25 03:55:00
11:15 PM,77.0,75.2,94,30.15,7.0,Calm,Calm,-,0.00,,Clear,0,2013-08-25 04:15:00
11:35 PM,77.0,75.2,94,30.16,9.0,Calm,Calm,-,0.00,,Clear,0,2013-08-25 04:35:00
11:55 PM,75.2,75.2,100,30.16,8.0,ENE,3.5,-,0.00,,Clear,70,2013-08-25 04:55:00